This is the latest recevied weather packets stored in our database for station/object NI4CE-11. If no packets are shown the sender has not sent any weather packets the latest 10 day(s).
| Time | Temp. | Humidity | Pressure | Rain* | Wind** | Luminosity | Snow |
|---|---|---|---|---|---|---|---|
| 1777532118 | 22.22° C | 100% | 1012.6 hPa | 0 mm | - | - | - |
| 1777531836 | 23.33° C | 100% | 1012.7 hPa | 0 mm | - | - | - |
| 1777531818 | 22.22° C | 100% | 1012.6 hPa | 0 mm | - | - | - |
| 1777531518 | 22.78° C | 100% | 1012.6 hPa | 0 mm | - | - | - |
| 1777531218 | 22.22° C | 100% | 1012.7 hPa | 0 mm | - | - | - |
| 1777530949 | 23.33° C | 100% | 1012.7 hPa | 0 mm | - | - | - |
| 1777530918 | 23.33° C | 100% | 1012.7 hPa | 0 mm | - | - | - |
| 1777530902 | 22.78° C | 100% | 1013 hPa | 0 mm | - | - | - |
| 1777530618 | 23.33° C | 100% | 1012.8 hPa | 0 mm | - | - | - |
| 1777530318 | 23.33° C | 100% | 1012.9 hPa | 0 mm | - | - | - |
| 1777530018 | 22.78° C | 100% | 1012.9 hPa | 0 mm | - | - | - |
| 1777529718 | 22.22° C | 100% | 1013 hPa | 0 mm | - | - | - |
| 1777529418 | 22.78° C | 100% | 1013 hPa | 0 mm | - | - | - |
| 1777529118 | 22.78° C | 100% | 1013 hPa | 0 mm | - | - | - |
| 1777528818 | 21.67° C | 100% | 1013.2 hPa | 0 mm | - | - | - |
| 1777528518 | 21.67° C | 100% | 1013.3 hPa | 0 mm | - | - | - |
| 1777528406 | 22.78° C | 100% | 1013.7 hPa | 0 mm | - | - | - |
| 1777528218 | 21.67° C | 100% | 1013.4 hPa | 0 mm | - | - | - |
| 1777527918 | 21.67° C | 100% | 1013.5 hPa | 0 mm | - | - | - |
| 1777527618 | 22.22° C | 100% | 1013.7 hPa | 0 mm | - | - | - |
| 1777527318 | 23.89° C | 100% | 1013.7 hPa | 0 mm | - | - | - |
| 1777527018 | 22.78° C | 100% | 1013.7 hPa | 0 mm | - | - | - |
| 1777526718 | 23.33° C | 100% | 1013.8 hPa | 0 mm | - | - | - |
| 1777526418 | 23.33° C | 100% | 1013.8 hPa | 0 mm | - | - | - |
| 1777526118 | 22.78° C | 100% | 1013.7 hPa | 0 mm | - | - | - |
* Rain latest hour (hover to see other rain measurements)
** Current wind speed in m/s (hover to see current wind gust speed)